Location: Gamarra
(10.0780°N, 67.4929°W)
Time: 09:42:58
(UTC+00:00)

NOSS 3-1 (C) - Pass Details

Date: 13 April 2024
Orbit: 652 x 1553 km, 63.4° (Epoch: 15 May)

Event Time Altitude Azimuth Distance (km) Brightness Sun altitude
Rises 23:35:24 0° 212° (SSW) 3,019 6.4 -14.1°
Reaches altitude 10° 23:37:46 10° 217° (SW) 2,067 5.6 -14.7°
Maximum altitude 23:42:13 54° 294° (WNW) 792 3.5 -15.7°
Drops below altitude 10° 23:46:48 10° 12° (NNE) 2,118 5.3 -16.8°
Sets 23:49:15 0° 17° (NNE) 3,102 6.1 -17.4°
